Home > Weather > Metairie > Past weeks

Flag for U.S.A. Weather for the Past 2 Weeks in Metairie, Louisiana, U.S.A.

Now
60 °F

Passing clouds.


Feels Like: 60 °F
Forecast: 46 / 56 °F
Wind: 18 mph from Northwest

Location: New Orleans International Airport

Current Time: Feb 8, 2016 at 12:10:37 PM

Latest Report: Feb 8, 2016 at 10:53 AM


Visibility: 10 mi

Pressure: 30.12 "Hg

Humidity: 26%

Dew point: 25 °F

Location of MetairieLocation

Historic Weather in Metairie — Graph

°F

Metairie Temperature Yesterday

Maximum temperature yesterday: 60 °F (at 1:53 PM)
Minimum temperature yesterday: 39 °F (at 5:53 AM)
Average temperature yesterday: 49 °F

High & Low Weather Summary for the Past Weeks

 TemperatureHumidityPressure
High78 °F (Feb 1, 1:53 PM)91% (Feb 1, 2:53 AM)30.53 "Hg (Feb 1, 2:53 AM)
Low37 °F (Feb 6, 4:53 AM)21% (Feb 5, 3:53 PM)29.78 "Hg (Feb 2, 2:53 PM)
Average57 °F63%30.11 "Hg
* Reported Jan 24 10:53 AM — Feb 8 10:53 AM, Metairie, Weather by CustomWeather, © 2016

Note: Actual official high and low records may vary slightly from our data, if they occured in-between our weather recording intervals... More about our weather records

Advertising

Metairie Weather History for the Previous 24 Hours

 ConditionsComfort  
Time TempWeatherWind HumidityBarometerVisibility
10:53 AM
Mon, Feb 8
60 °FPassing clouds.18 mph26%30.12 "Hg10 mi
9:53 AM58 °FPassing clouds.16 mph38%30.14 "Hg10 mi
8:53 AM55 °FPassing clouds.18 mph51%30.14 "Hg10 mi
7:53 AM52 °FPassing clouds.16 mph69%30.13 "Hg10 mi
6:53 AM50 °FPassing clouds.15 mph74%30.10 "Hg10 mi
5:53 AM48 °FClear.10 mph77%30.10 "Hg10 mi
4:53 AM46 °FClear.8 mph77%30.10 "Hg10 mi
3:53 AM45 °FClear.8 mph74%30.09 "Hg10 mi
2:53 AM45 °FClear.6 mph68%30.12 "Hg10 mi
1:53 AM46 °FClear.6 mph63%30.14 "Hg10 mi
12:53 AM44 °FClear.5 mph63%30.16 "Hg10 mi
11:53 PM
Sun, Feb 7
45 °FClear.8 mph60%30.16 "Hg10 mi
10:53 PM46 °FClear.6 mph54%30.18 "Hg10 mi
9:53 PM46 °FClear.8 mph54%30.19 "Hg10 mi
8:53 PM49 °FClear.12 mph50%30.19 "Hg10 mi
7:53 PM51 °FClear.12 mph50%30.19 "Hg10 mi
6:53 PM53 °FClear.12 mph45%30.17 "Hg10 mi
5:53 PM54 °FClear.8 mph31%30.16 "Hg10 mi
4:53 PM58 °FSunny.6 mph25%30.16 "Hg10 mi
3:53 PM59 °FSunny.3 mph21%30.16 "Hg10 mi
2:53 PM58 °FPassing clouds.3 mph21%30.17 "Hg10 mi
1:53 PM60 °FPassing clouds.5 mph21%30.20 "Hg10 mi
12:53 PM58 °FPassing clouds.7 mph24%30.24 "Hg10 mi
Weather by CustomWeather, © 2016

See weather overviewHow to use our weather pages